Погода Обсерватория Федорова

Хотите узнать прогноз погоды Обсерватория Федорова? Тогда Вам сюда: Погода Обсерватория Федорова

Поиск расширенной информации на нашем сайте:

Полезная информация:

Новости сайта



02.01.2020
Опубликован Долгосрочный прогноз погоды по городам России и ближнего зарубежья на январь 2020 года.
Карты: Прогноз на январь и февраль 2020 года, Сравнение прогнозируемой аномалии приземной температуры воздуха на январь 2020 года по разным моделям.




Погода Обсерватория Федорова - сегодня

Время (UTC), дата Ветер
(°,м/с) 
Видим.   Явления Облачность Т
(°С)
Тd
(°С)
f(%) Тe
(°С)
Pmin
(гПа)
dP
(гПа)
Po
(мм)
O2
(г/м3)
Тmin Tmax R s Состояние
почвы
00 25.11.20 190 (Ю) 20000 м    8/4 300 м средняя, верхняя 
[Sc|Ac trans|Ci fib]
-16.9 -19.7 79 -23  1018.5  -0.1  763  329  -21.4      10  равномерный
сухой снег
100% 
03 25.11.20 170 (Ю) 4000 м  слаб. ливневой снег  10/6 300 м кучево-дожд., средняя, верхняя 
[Cb cap|Ac trans|Ci fib]
-14.6 -17 82 -18  1018  -0.4  762  326           
06 25.11.20 190 (Ю) 20000 м  {ливн. осадки}  9/4 300 м средняя, верхняя 
[Sc|Ac trans|Ci fib]
-17.5 -19.6 84 -23  1017.6  -0.5  762  330           
09 25.11.20 190 (Ю) 20000 м  позёмок  10/6 300 м средняя, верхняя 
[Sc|Ac trans|Ci fib]
-13.3 -15.8 81 -19  1017.1  -0.4  762  324           
12 25.11.20 190 (Ю) 7{11}  20000 м  позёмок  10/6 300 м средняя 
[Sc|Ac und]
-11.5 -13.7 84 -18  1016.2  -1  761  321    -11.5  0.0     
00 26.11.20 230 (ЮЗ) 12-15{15}  4000 м  метель{ливн. осадки}  10/10 300 м 
[Sc]
-7.4 -8.7 90 -15  1014.4  -0.2  760  315  -11.6      равномерный
сухой снег
100% 
12 26.11.20 220 (ЮЗ) 6{12}  20000 м    9/3 300 м средняя 
[Sc|Ac trans]
-11.2 -13.4 84 -17  1015.3  0.1  760  321    -7.4  0.0     
00 27.11.20 230 (ЮЗ) 10-13{14}  4000 м  слаб. ливневой снег  10/10 300 м кучево-дожд. 
[Cb cap]
-5.3 -6.2 93 -11  1015.9  0.2  761  313  -11.2      равномерный
сухой снег
100% 
12 27.11.20 230 (ЮЗ) 9-12  20000 м  позёмок  10/10 300 м 
[Sc]
-5.5 -6.6 92 -11  1017.9  762  314    -4.7  0.0     
00 28.11.20 220 (ЮЗ) 8-11  4000 м  слаб. ливневой снег  10/10 300 м кучево-дожд. 
[Cb cap]
-5 -6.3 91 -10  1011.4  -2  757  311  -9    0.2  равномерный
сухой снег
100% 
12 28.11.20 230 (ЮЗ) 7{11}  4000 м  слаб. ливневой снег  10/8 300 м кучево-дожд., средняя 
[Cb cap|Ac und]
-5.6 -6.6 93 -11  1006.7  -1.1  754  311    -3.6  0.0     
15 28.11.20 230 (ЮЗ) 20000 м  позёмок{ливн. осадки}  10/3 300 м средняя, верхняя 
[Sc|Ac trans|Ci fib]
-6.4 -7.3 93 -12  1004.9  -1.8  752  311           
00 29.11.20 230 (ЮЗ) 10-13  4000 м  слаб. ливневой снег  10/10 300 м кучево-дожд. 
[Cb cap]
-4.5 -5.4 93 -10  996.2  -3.7  746  306  -6.6    0.2  равномерный
сухой снег
100% 
12 29.11.20 260 (З) 10-14{17}  4000 м  слаб. снег{ливн. осадки}  10/10 100 м 
[Frnb|Ns]
-3.5 -4.5 93 -9  991.2  0.3  742  303    -2.1       
00 30.11.20 270 (З) 8-11  20000 м  позёмок{ливн. осадки}  8/3 300 м средняя 
[Sc|Ac trans]
-5.3 -7.1 87 -11  982  -0.4  735  303  -5.3    0.2  равномерный
сухой снег
100% 
12 30.11.20 200 (Ю) 13-18  0500 м  слаб. ливневой снег  10/10 300 м кучево-дожд. 
[Cb cap]
-5.6 -6.6 93 -13  976.8  -8.1  731  302    -5  0.7     
00 01.12.20 290 (З) 10-12{16}  20000 м  позёмок  9/5 600 м средняя, верхняя 
[Sc|Ac trans|Ci fib]
-7.4 -9.6 84 -14  983.7  1.9  737  306  -8.4    0.5     
12 01.12.20 300 (СЗ) 6{13}  20000 м  позёмок{ливн. осадки}  9/6 300 м средняя 
[Sc|Ac trans]
-7.5 -10.3 80 -12  986.8  0.4  739  307    -7  0.3     
15 01.12.20 280 (З) 20000 м    9/3 300 м средняя, верхняя 
[Sc|Ac trans|Ci fib]
-10.5 -12.7 84 -15  987.1  0.3  739  311           
18 01.12.20 280 (З) 20000 м    6/3 300 м средняя, верхняя 
[Sc|Ac trans|Ci fib]
-10.9 -12.9 85 -15  987.6  0.6  740  312           
21 01.12.20 310 (СЗ) 20000 м    6/0 средняя, верхняя 
[Ac trans|Ci fib]
-11.4 -13.7 83 -16  989.1  1.5  741  313           
00 02.12.20 290 (З) 20000 м    8/3 300 м средняя, верхняя 
[Sc|Ac trans|Ci fib]
-10.9 -13.4 82 -16  990.1  741  312  -14.2      равномерный
мокрый или
старый снег
100% 
03 02.12.20 340 (С) 20000 м    10/5 300 м средняя 
[Sc|Ac und]
-8.9 -12.5 75 -11  990.4  0.3  742  310           
06 02.12.20 210 (ЮЗ) 20000 м  {ливн. осадки}  10/10 300 м 
[Sc]
-11.7 -13.4 87 -14  990.2  -0.2  741  313           
09 02.12.20 150 (ЮВ) 20000 м    10/10 300 м 
[Sc]
-11.5 -13.1 88 -13  989.8  -0.3  741  313           
Время (UTC), дата Ветер
(°,м/с) 
Видим.   Явления Облачность Т
(°С)
Тd
(°С)
f(%) Тe
(°С)
Pmin
(гПа)
dP
(гПа)
Po
(мм)
O2
(г/м3)
Тmin Tmax R s Состояние
почвы

Для получения пояснительной информации подведите курсор к названию столбца.

ПОГОДА Обсерватория Федорова - архив

Всё, что Вы хотите узнать о погоде Обсерватория Федорова - удобно и подробно!

Выберите нужную дату (начиная с 1 января 2019* года) и нажмите кнопку "Найти".
Будут отображены архивные сводки погоды по пункту Обсерватория Федорова, начиная с указанной даты.


Отображать данные в формате CSV (для использования в таблицах Excel)


Внимание! Наш архив погоды предназначен исключительно для личного некоммерческого использования в познавательных целях. Если Вам необходимы официальные справки о состоянии погоды (для производственных, юридических, коммерческих и т.п. целей), обращайтесь в органы Росгидромета.

*Примечание: данная дата относится к архиву по метеостанциям СССР (Россия, СНГ, Балтия).
Архив по метеостанциям Зарубежной Европы и Азии (кроме Китая) хранится 10 дней, по другим регионам земного шара (Китай, Африка, Америка, Австралия, Океания) - 1 день.

Обсерватория Федорова - район местоположения метеостанции


Название, широта, долгота, высота метеостанции:
Обсерватория Федорова (Мыс Челюскин) 77.7°ш. 104.3°д. 15 м над ур. моря [Российская Федерация]

Дополнительная информация

В oтличие oт бoльшинства пoгoдных сайтoв мы публикуем пoдрoбную метеoинфoрмацию в детальнoм прoфессиoнальнoм фoрмате.

Характеристики температуры и влажнoсти вoздуха измеряются на высoте 2 м в тени вдали oт зданий и деревьев.
Скoрoсть ветра измеряется на высoте 10 м (на урoвне рoста челoвека скoрoсть ветра ниже в 1.5-2 раза). Если метеoстанция нахoдится в гoрoде или в лесу, тo скoрoсть ветра занижена на 2-4 м/с пo сравнению с oткрытым местoм. Скoрoсть ветра над акватoриями крупных рек и oзёр, а также на вершинах хoлмoв на 2-5 м/с выше, чем в oбычных услoвиях.
Атмoсфернoе давление в разных тoчках местнoсти мoжет значительнo oтличаться oт давления на метеoстанции, в зависимoсти oт услoвий рельефа (при пoдъёме на 10 м давление пoнижается примернo на 1 мм рт.ст.).